Showing default

HAISHAO 1, 62190

Orbit data source: Space-Track

HAISHAO 1, 62190 is a Chinese payload satellite in LEO that was launched on Wed, 04 Dec 2024 UTC via a KUAIZHOU-1A launch vehicle from the Xichang Space Center, China (XSC). Payloads include a variety of satellites, spacecraft, and rockets equipped with specific instruments for various scientific and technological missions. These include communications satellites like Starlink; space stations such as the ISS; scientific satellites like the Hubble; Earth observation satellites from companies like Planet Labs, Umbra, and HawkEye 360; GPS; miniature CubeSats for education and research; and military/defense satellites.

Loading next visibility...
HAISHAO 1 details
Identifier
62190, 2024-228A
Orbit
LEO
Last TLE update8 hours ago
Origin
Flag of CNXXYW (CN / PRC)
ManufacturerZHWK/IMICAS
MissionOperational spacecraft
Bus & MotorZK1, Unknown motor
Mass400 kg wet, 400 kg dry
Launch date (UTC)
2024-12-04 (3 weeks ago)
Launch vehicle
KUAIZHOU-1A
Launch site
Xichang Space Center, China (XSC)
Object type
Payload
Rocket body
Debris
Shape & HBRUnknown
Radar Cross SectionLarge (>1 m²)

Expand to show TLE details & history

TLE from 8 hours ago
0 HAISHAO 1
1 62190U 24228A   24361.10047542  .00033627  00000-0  54077-3 0  9992
2 62190  42.9939 336.9106 0115995 206.5537 152.9347 15.44993162  3325
Epoch: 2024-12-26T02:24Z
Definitive object data (Epoch: 2024-12-26T02:24:41.076Z)
Latitude-0.00006°
Longitude-154.34534°
Altitude501.685 km
Speed7.576 km/s
True Right ascension22h 27m 38s
True Declination0° 00' 00"
Sunlit
Object was in daylight at TLE epoch
Visualization TLE readout
Latitude40.60507°
Longitude-42.45504°
Altitude447.966 km
Speed7.641 km/s
Apparent Right ascension02h 08m 38s
Apparent Declination3° 53' 51"
Sunlit
Object is in full shadow
Visualization observer readout
Local Sidereal Time09:59:44
Azimuth291.653° WNW
Elevation-18.238°
Doppler factor1
Orbital elements
Apogee altitude512.369 km
Perigee altitude354.35 km
Semi-major axis6,811.496 km
Eccentricity0.0115995
Inclination42.9939°
RAAN336.9106°
Arg. of periapsis206.5537°
True anomaly153.53177°
Mean anomaly152.9347°
Eccentric anomaly153.234°
Mean motion3.86082 °/min
BSTAR0.00054077
Orbital period93.24 mins
Loading maneuver chart data...
Loading historical data...
Loading historical data...
Loading historical data...
Loading historical data...
Loading historical data...
Loading historical data...
Loading historical data...
Other satellites on launch #228 in the year 2024 (2024-12-04 UTC)

HAISHAO 1 Visibility forecast

Observer location: undefined°, undefined

Span
Click to sort rows by Start time (UTC) header in descending order
Start Az.
Max El. time (UTC)
Max El. Az.
Max El.
End time (UTC)
End Az.
6 mins2024-12-27 01:53:31.532Z221.893° SW2024-12-27 01:56:31.532Z164.453° S34.105°2024-12-27 01:59:31.532Z85.297° E
5 mins2024-12-27 03:32:31.532Z272.725° WNW2024-12-27 03:34:31.532Z341.711° N41.928°2024-12-27 03:37:31.532Z68.665° E
5 mins2024-12-27 05:10:31.532Z295.352° NW2024-12-27 05:12:31.532Z354.037° N38.716°2024-12-27 05:15:31.532Z81.851° E
5 mins2024-12-27 06:48:31.532Z278.95° WNW2024-12-27 06:50:31.532Z209.13° SW41.559°2024-12-27 06:53:31.532Z123.711° SE
|